Temperature
21 19 20 20 20 21 21 20 20 20 20 20 19 19 18 18 18 18 18 18 19 19 19 19 19 19 19 19 19 19 18 18 17 17 17 16 16 16 16 15 15 15 15 15
19 20 21 21 21 20 20 20 20 19 20 20 19 18 18 18 18 18 18 18 18 18 19 19 18 18 18 18 18 18 18 17 17 17 16 16 16 15 15 15 15 15 15 15
21 21 22 22 22 21 21 20 20 20 19 19 19 18 18 18 18 18 18 18 18 18 18 18 18 18 18 18 18 18 17 17 17 16 16 16 15 15 15 15 15 14 14 14
21 21 22 22 22 21 20 21 20 20 19 17 19 18 18 17 17 17 17 18 18 18 18 18 18 18 18 18 17 17 17 17 16 16 15 15 15 15 14 14 14 14 14 14
21 22 22 22 22 22 21 20 20 19 18 17 17 17 17 17 17 17 17 17 18 18 18 18 18 17 17 17 17 17 16 16 16 15 15 15 14 14 14 14 14 14 14 13
21 21 22 22 22 21 20 19 18 16 15 17 18 17 16 16 17 17 17 17 17 18 18 17 17 17 17 16 16 16 16 16 15 15 15 14 14 14 13 13 13 13 13 13
20 20 21 22 21 20 19 17 16 17 16 16 17 17 16 17 16 16 16 17 17 17 17 17 17 16 16 16 16 15 15 15 15 15 14 14 14 14 13 13 13 13 13 13
19 19 20 21 21 20 19 18 17 17 16 16 16 16 17 17 17 17 17 17 17 17 17 16 16 16 15 15 15 15 15 14 14 14 14 14 13 13 13 13 13 12 12 12
18 18 20 20 20 20 19 17 16 15 15 15 15 16 16 17 16 16 16 16 16 16 16 16 16 15 15 15 15 14 14 14 14 14 14 13 13 13 13 12 12 12 12 12
18 18 19 19 20 19 18 16 14 15 15 15 16 16 16 16 16 15 15 15 15 15 15 16 15 15 15 14 14 14 14 13 13 13 13 13 13 13 12 12 12 12 12 12
17 17 17 18 19 18 18 17 14 13 13 15 15 15 16 15 15 14 15 15 15 15 15 15 15 15 14 14 14 14 13 13 13 13 13 13 13 12 12 12 11 11 11 11
15 14 15 16 17 18 18 17 15 15 14 13 13 14 16 15 14 14 14 15 15 15 15 15 15 14 14 14 13 13 13 13 13 13 13 12 12 12 12 11 11 11 11 11
15 14 14 15 16 16 17 16 15 13 13 12 13 15 15 14 14 14 14 14 14 14 14 14 14 14 14 13 13 13 13 12 12 12 12 12 12 12 11 11 11 11 11 11
16 13 14 15 15 16 16 16 15 14 13 13 14 15 15 14 13 13 14 14 13 13 13 14 14 13 13 13 13 12 12 12 12 12 12 12 12 11 11 11 11 11 11 11
14 13 14 14 15 16 16 16 16 15 14 14 15 14 14 14 13 13 13 13 13 13 13 13 13 13 13 12 12 12 12 12 12 11 11 11 11 11 11 11 11 11 11 11
12 13 13 14 15 15 15 16 16 15 15 14 14 14 14 14 14 13 13 13 12 12 12 12 13 13 12 12 12 12 12 11 11 11 11 11 11 11 11 11 11 11 11 10
11 12 12 12 14 14 14 15 15 15 15 14 14 14 13 13 13 13 13 13 12 12 12 12 12 12 12 12 12 11 11 11 11 11 11 11 11 11 10 10 10 10 10 10
11 11 10 11 13 14 14 15 15 15 14 14 13 13 13 13 13 13 13 13 12 12 12 12 12 12 12 12 12 11 11 11 11 11 11 10 10 10 10 10 10 10 10 10
10 11 10 10 12 13 14 15 14 14 14 13 13 12 12 12 12 13 13 13 13 12 12 12 12 12 12 11 11 11 11 11 11 11 11 10 10 10 10 10 10 10 10 10
10 10 10 11 12 13 13 14 15 14 13 13 12 12 12 11 11 12 13 12 12 12 12 12 12 12 12 11 11 11 11 11 11 10 10 10 10 10 10 10 10 10 10 10
11 10 10 11 11 12 13 13 14 13 12 13 13 12 11 11 11 12 12 12 12 12 12 12 12 12 11 11 11 11 11 11 11 10 10 10 10 10 10 10 10 10 10 10
10 10 10 10 11 12 13 12 12 11 12 12 12 12 12 12 12 12 12 12 12 12 12 12 12 11 11 11 11 11 11 11 10 10 10 10 10 10 10 10 10 10 10 10
9 10 9 10 10 12 13 12 12 12 12 12 12 12 12 12 12 12 12 12 11 12 12 12 11 11 11 11 11 11 11 10 10 10 10 10 10 10 10 10 10 10 10 10
9 10 9 9 10 12 12 12 12 12 12 12 12 12 12 12 12 12 11 11 11 11 12 11 11 11 11 11 11 11 11 11 10 10 10 10 10 10 10 10 10 10 10 10
9 9 9 9 10 11 12 12 12 12 12 12 12 12 12 11 11 11 11 11 11 11 11 11 11 11 11 11 11 11 11 11 10 10 10 10 10 10 10 10 10 10 11 11
9 9 9 9 11 10 11 12 11 11 11 11 11 11 11 11 11 11 11 11 11 11 11 11 11 11 11 11 11 11 11 11 11 11 10 10 10 10 10 10 10 11 11 11
Wind_Speed
5 5 2 4 5 4 3 2 5 7 5 1 4 5 6 4 1 1 1 2 2 3 2 1 1 2 3 3 4 4 5 4 4 3 3 3 3 2 2 2 2 3 4 4
6 3 5 3 2 3 2 2 4 5 3 1 3 5 5 3 3 3 3 3 3 1 1 0 1 1 2 3 4 4 4 3 3 3 3 2 2 2 2 2 1 2 3 3
2 6 3 2 2 1 2 3 5 5 4 3 2 6 4 4 2 2 2 3 2 2 2 2 2 2 3 4 4 4 4 3 3 3 1 1 1 1 1 1 2 2 2 2
3 5 3 3 3 1 4 5 4 2 2 4 2 4 6 4 5 4 4 4 3 2 2 2 3 3 3 4 3 3 3 3 2 2 3 3 3 3 3 2 2 1 1 2
4 4 3 3 4 2 4 2 1 1 1 2 3 1 7 4 5 6 6 5 4 3 2 3 3 3 3 2 2 2 2 2 2 2 3 3 3 3 2 1 2 1 1 2
4 3 1 3 3 1 1 4 4 5 4 2 3 1 7 4 6 6 5 5 4 3 3 2 1 2 1 1 1 2 2 2 2 3 3 4 4 2 1 1 2 1 1 1
8 7 6 2 4 6 6 5 5 6 5 5 3 2 8 6 4 5 6 5 4 3 2 1 1 1 2 2 2 1 2 2 2 2 3 4 4 4 3 3 3 2 1 0
4 7 6 5 2 2 1 5 4 3 5 6 4 5 7 4 3 3 3 3 3 2 2 2 2 2 2 2 2 1 2 2 1 1 2 2 2 2 2 3 3 2 2 2
2 6 6 5 4 1 1 1 3 4 2 3 6 7 7 3 5 5 5 4 4 3 2 2 1 1 1 1 1 1 1 1 1 1 2 2 2 2 2 2 2 2 2 1
1 5 6 6 4 5 3 4 4 3 1 4 6 5 5 7 7 6 6 5 5 3 2 1 0 0 1 1 1 1 1 1 1 1 1 1 1 2 2 2 2 2 2 1
2 1 6 6 3 4 3 3 4 2 3 2 4 7 4 6 6 6 7 6 5 4 2 1 1 0 1 2 2 1 1 1 1 1 1 0 0 1 2 2 2 2 2 1
2 1 4 6 6 3 1 2 4 1 4 3 3 7 5 4 5 5 6 6 5 3 2 1 0 1 2 2 1 1 1 0 0 0 1 1 1 2 1 1 1 2 2 1
2 3 5 8 7 5 3 2 1 2 2 4 4 8 4 6 7 6 5 5 5 3 2 1 1 1 1 1 2 1 1 1 1 2 2 2 2 1 1 1 0 0 1 1
2 2 5 6 8 6 8 8 5 2 3 5 8 10 10 10 9 8 6 4 3 2 1 0 1 1 0 1 0 1 1 1 1 2 2 2 1 1 0 1 0 0 1 1
3 2 6 9 10 7 8 10 7 6 6 6 8 8 9 9 8 6 5 3 2 3 2 1 1 1 0 1 1 1 0 1 1 1 2 1 1 1 1 1 1 1 1 1
2 2 4 7 7 8 9 8 7 6 5 5 7 8 7 7 5 5 4 2 3 3 2 2 2 1 1 1 1 0 0 0 2 2 1 0 0 0 0 1 1 1 1 1
1 1 2 6 8 6 6 5 4 3 2 3 5 7 7 8 7 6 4 3 3 3 2 2 2 2 2 2 2 2 1 0 1 1 0 0 0 0 0 1 1 0 0 0
3 2 1 3 5 5 6 3 2 2 3 2 4 6 7 8 7 5 3 2 3 3 3 2 2 2 2 2 1 1 1 1 1 1 1 1 1 1 0 0 0 0 0 0
4 4 2 0 3 7 5 3 4 4 4 3 6 8 8 7 6 4 3 3 3 3 3 3 3 2 2 1 1 1 1 1 1 1 2 2 2 2 1 0 1 0 0 1
4 2 2 1 3 5 5 7 7 2 4 5 7 8 8 6 6 7 5 5 4 3 2 2 1 0 1 2 1 2 2 2 3 3 3 3 3 3 2 2 1 0 0 1
4 3 1 3 5 6 4 7 5 3 7 9 8 7 6 5 6 7 5 4 4 3 2 2 1 1 2 2 1 2 3 4 5 3 2 2 2 2 2 1 1 1 0 1
3 2 2 2 3 6 5 5 2 6 8 9 8 7 6 8 7 6 5 4 3 3 2 2 2 2 2 2 2 2 5 5 3 2 2 1 1 1 1 2 1 1 1 1
4 5 4 5 7 7 6 6 8 7 9 9 8 8 7 7 8 7 5 4 4 4 3 2 2 2 2 2 2 4 5 3 2 2 2 1 1 1 1 2 1 0 0 0
5 2 3 6 9 10 10 10 10 9 9 10 9 8 7 7 7 6 5 5 4 4 3 2 2 2 3 3 3 4 4 2 3 2 2 1 1 1 0 1 1 2 2 1
7 4 5 9 12 11 8 8 10 11 10 9 8 8 7 7 7 6 5 5 4 4 3 3 3 4 4 4 4 4 2 2 3 3 2 1 1 1 0 1 1 2 3 4
6 7 7 10 10 9 14 13 11 10 10 10 9 9 7 6 6 5 5 5 4 4 3 3 4 4 4 4 4 3 2 3 4 2 2 1 1 1 1 0 2 3 3 4
Wind_Direction
21 52 328 262 205 203 202 226 274 276 277 303 277 287 299 307 332 314 274 226 221 231 225 169 154 139 138 147 160 173 173 176 165 170 185 201 212 221 225 224 217 202 201 191
25 328 258 241 190 170 193 260 277 288 308 230 289 302 291 269 240 234 235 235 230 263 348 31 151 137 145 169 177 172 182 184 176 189 188 188 193 226 226 243 247 213 200 185
213 263 307 5 352 5 268 222 250 262 327 13 352 323 305 300 305 290 280 252 250 226 243 244 198 177 174 187 185 182 187 189 191 192 157 127 86 28 261 245 243 234 187 154
285 299 355 8 326 224 279 263 238 252 354 313 12 295 291 299 308 292 289 290 284 268 244 230 219 200 194 199 185 172 175 180 193 178 174 176 200 222 228 221 215 203 154 128
303 327 5 346 298 239 252 329 10 325 152 349 3 202 289 319 293 280 277 275 274 266 241 231 224 203 203 191 176 168 164 178 172 167 195 188 207 221 226 202 167 158 146 121
289 309 287 269 307 345 29 30 36 49 68 350 282 199 280 267 254 283 288 281 268 260 259 249 220 162 157 152 159 157 159 205 195 182 197 196 200 196 192 198 181 177 145 118
338 336 335 344 352 0 42 53 11 357 4 262 291 239 252 262 262 261 276 285 280 268 263 265 249 197 182 184 193 181 189 236 229 201 200 203 196 185 194 203 193 177 160 149
353 318 322 342 312 280 343 128 152 246 254 281 313 252 256 272 295 298 304 305 316 299 270 248 234 209 205 218 210 199 204 241 245 208 216 220 207 195 209 206 194 184 187 203
319 284 302 321 328 96 39 67 167 155 256 284 283 285 304 324 342 340 338 340 320 298 260 233 210 202 211 226 219 217 188 204 223 203 203 218 215 202 212 218 192 187 195 199
248 280 299 312 8 23 81 138 75 83 281 285 293 290 278 298 307 317 324 317 309 321 320 291 207 121 123 147 64 65 119 168 215 194 198 208 223 212 207 193 207 218 219 194
29 268 310 347 355 309 2 49 79 108 173 198 284 279 252 268 283 292 301 311 310 300 284 280 289 48 68 69 73 62 83 117 175 174 175 108 296 211 197 196 207 210 216 213
8 100 296 288 283 281 215 154 133 150 267 210 234 269 283 281 300 304 306 310 312 300 298 293 91 77 61 60 71 83 93 114 277 78 100 68 58 79 95 200 191 197 196 200
4 56 345 337 342 354 350 308 189 163 176 202 223 268 312 344 337 324 311 306 313 318 332 31 90 85 61 30 13 16 24 15 37 60 74 80 72 76 69 23 1 115 148 159
47 152 193 239 259 287 298 297 288 208 225 243 242 271 310 325 323 320 310 291 301 317 305 147 153 155 68 45 40 348 342 14 47 80 104 108 102 116 106 58 43 35 87 106
68 240 244 256 268 274 276 286 286 256 237 240 273 278 293 301 301 303 299 294 322 325 310 244 226 210 148 6 4 9 336 60 78 94 119 135 154 149 130 90 58 51 57 82
43 241 284 286 278 281 280 290 290 280 273 268 287 288 302 314 326 329 320 303 308 300 297 282 258 217 211 214 227 280 321 77 118 121 127 113 118 123 134 131 77 61 57 47
276 201 297 282 300 312 284 272 275 277 280 265 277 291 318 329 323 310 299 297 290 299 305 261 243 242 245 226 205 209 231 131 133 147 154 251 252 271 250 115 92 82 47 41
184 167 193 292 344 278 255 273 280 260 299 309 304 320 327 318 310 294 275 263 288 308 302 269 244 249 263 256 221 204 168 162 154 190 233 225 215 237 266 97 233 286 334 348
172 160 168 206 285 280 291 336 335 288 293 358 340 333 338 337 334 313 307 293 271 276 269 257 235 234 233 254 226 164 185 196 193 225 234 225 206 201 196 220 297 323 360 337
48 93 136 201 264 267 284 322 321 298 289 344 340 327 326 340 327 300 308 314 306 303 279 256 255 246 241 259 210 184 212 221 230 235 237 227 207 198 204 214 220 234 198 275
352 0 260 241 253 269 301 329 4 13 296 314 313 307 303 283 270 283 290 294 282 276 268 245 225 235 247 242 196 222 229 234 234 230 220 209 208 207 205 190 192 205 319 343
258 273 264 234 250 265 324 356 342 273 292 301 298 292 287 290 291 292 283 275 275 273 256 220 223 261 270 233 209 248 254 249 233 206 190 189 217 216 180 172 211 201 147 359
232 211 220 219 240 266 294 283 284 283 290 294 293 291 286 289 289 289 281 274 277 256 236 213 215 258 283 251 225 244 266 253 198 173 176 187 210 202 175 177 199 216 168 204
278 254 246 274 275 285 291 293 296 294 290 292 289 286 281 281 282 280 279 273 271 254 233 214 200 237 266 263 251 252 261 210 170 168 183 175 181 207 109 169 191 207 231 245
252 272 268 271 283 298 291 295 300 306 306 304 303 294 281 278 278 268 272 265 257 246 238 209 210 231 254 262 264 261 221 169 167 175 181 171 180 166 82 338 261 237 247 223
228 230 245 264 272 279 288 293 296 298 296 295 300 303 296 278 267 264 265 256 242 239 239 222 223 232 250 255 258 244 204 170 164 166 173 169 173 165 166 292 337 322 272 279
Height
1506 1511 1516 1513 1511 1511 1513 1517 1519 1513 1505 1507 1507 1505 1500 1497 1496 1496 1495 1494 1494 1494 1494 1495 1496 1497 1499 1500 1501 1502 1503 1504 1505 1505 1506 1506 1506 1507 1507 1508 1509 1509 1510 1511
1513 1515 1508 1506 1507 1510 1513 1517 1517 1511 1504 1505 1507 1506 1500 1497 1496 1495 1494 1494 1493 1493 1493 1494 1495 1496 1496 1497 1498 1499 1500 1501 1502 1503 1503 1503 1503 1503 1503 1504 1504 1505 1506 1507
1514 1510 1504 1505 1507 1510 1512 1515 1513 1512 1507 1506 1508 1509 1503 1497 1496 1495 1494 1493 1493 1493 1493 1493 1493 1494 1495 1495 1496 1497 1498 1498 1499 1500 1500 1501 1500 1500 1500 1500 1500 1500 1501 1503
1511 1507 1505 1506 1508 1508 1515 1505 1506 1508 1514 1520 1514 1524 1507 1501 1498 1495 1493 1493 1492 1492 1492 1492 1492 1492 1492 1493 1494 1494 1495 1496 1496 1497 1497 1497 1497 1496 1496 1496 1496 1497 1498 1499
1512 1508 1507 1509 1507 1505 1506 1503 1505 1508 1513 1520 1519 1524 1515 1503 1500 1495 1492 1491 1491 1491 1490 1490 1490 1490 1491 1492 1492 1492 1493 1493 1493 1494 1494 1494 1494 1494 1493 1493 1493 1494 1495 1496
1510 1506 1506 1505 1503 1503 1503 1506 1510 1516 1522 1530 1520 1524 1520 1507 1499 1494 1490 1489 1489 1489 1489 1488 1488 1489 1489 1490 1490 1491 1491 1491 1491 1491 1491 1491 1491 1491 1491 1490 1490 1491 1493 1494
1518 1511 1506 1504 1506 1505 1508 1519 1533 1534 1539 1533 1519 1521 1516 1498 1494 1492 1490 1488 1487 1487 1487 1486 1486 1487 1487 1488 1488 1489 1489 1489 1489 1489 1489 1489 1489 1489 1488 1489 1489 1489 1491 1492
1530 1527 1511 1507 1508 1511 1511 1518 1536 1543 1542 1533 1521 1520 1506 1494 1492 1490 1489 1488 1487 1486 1485 1485 1484 1485 1486 1486 1487 1486 1487 1487 1487 1487 1487 1488 1488 1487 1487 1488 1488 1488 1489 1490
1531 1528 1511 1507 1506 1507 1513 1519 1520 1532 1533 1537 1528 1514 1501 1492 1491 1490 1488 1487 1486 1484 1484 1483 1484 1484 1484 1485 1484 1484 1484 1484 1485 1485 1486 1486 1486 1486 1486 1487 1487 1487 1487 1489
1525 1528 1516 1510 1507 1508 1511 1517 1526 1533 1539 1540 1528 1519 1513 1498 1494 1491 1489 1487 1486 1484 1483 1483 1483 1483 1483 1483 1483 1483 1483 1483 1483 1484 1484 1484 1484 1484 1485 1485 1485 1485 1486 1487
1524 1530 1524 1517 1515 1516 1515 1519 1526 1534 1536 1540 1538 1525 1501 1497 1494 1493 1490 1488 1486 1484 1483 1483 1483 1483 1483 1483 1482 1482 1482 1482 1482 1482 1482 1482 1482 1481 1482 1483 1484 1484 1485 1486
1527 1533 1534 1524 1514 1511 1513 1516 1524 1534 1534 1534 1536 1523 1495 1494 1492 1491 1489 1487 1485 1484 1483 1483 1483 1483 1483 1482 1482 1481 1481 1481 1481 1481 1481 1481 1480 1479 1481 1481 1482 1483 1483 1485
1528 1535 1541 1533 1527 1518 1517 1516 1520 1525 1531 1534 1533 1518 1495 1493 1491 1490 1489 1486 1485 1483 1482 1482 1483 1482 1482 1482 1481 1480 1480 1480 1480 1480 1480 1481 1481 1481 1481 1481 1482 1482 1483 1484
1526 1534 1539 1540 1532 1524 1522 1517 1517 1522 1529 1527 1520 1509 1499 1495 1492 1490 1487 1486 1484 1483 1482 1482 1482 1482 1482 1482 1481 1481 1481 1480 1480 1480 1480 1481 1481 1481 1481 1481 1482 1482 1482 1483
1527 1533 1530 1527 1522 1520 1519 1515 1513 1516 1516 1518 1510 1506 1500 1495 1492 1490 1487 1485 1484 1483 1482 1482 1482 1482 1482 1482 1481 1481 1481 1481 1480 1480 1481 1481 1481 1481 1481 1481 1482 1482 1481 1482
1528 1531 1528 1525 1519 1517 1516 1511 1509 1508 1507 1508 1505 1503 1496 1493 1491 1488 1486 1485 1484 1483 1482 1482 1482 1481 1481 1481 1481 1481 1480 1480 1480 1480 1481 1481 1481 1481 1480 1481 1481 1481 1481 1482
1531 1532 1532 1530 1521 1517 1518 1510 1507 1506 1504 1505 1506 1502 1496 1492 1490 1488 1486 1484 1483 1482 1481 1481 1481 1481 1481 1481 1481 1481 1480 1480 1480 1481 1481 1481 1481 1481 1481 1481 1481 1481 1481 1482
1529 1532 1536 1535 1528 1528 1515 1503 1502 1502 1502 1501 1501 1499 1496 1493 1490 1487 1486 1484 1483 1481 1480 1480 1480 1480 1480 1480 1480 1480 1480 1480 1480 1480 1480 1481 1481 1481 1481 1481 1481 1481 1481 1481
1524 1529 1535 1537 1533 1523 1509 1504 1503 1503 1502 1500 1499 1496 1494 1492 1488 1485 1485 1484 1482 1481 1480 1479 1479 1479 1479 1479 1479 1479 1479 1479 1479 1479 1480 1480 1480 1480 1481 1481 1481 1481 1481 1480
1524 1526 1532 1533 1531 1525 1513 1504 1500 1501 1503 1498 1497 1496 1494 1492 1491 1486 1483 1482 1481 1480 1479 1479 1478 1478 1478 1478 1478 1478 1478 1478 1478 1478 1479 1480 1480 1480 1480 1480 1481 1481 1480 1480
1531 1531 1532 1532 1530 1518 1509 1504 1501 1509 1509 1499 1496 1494 1493 1491 1489 1485 1482 1481 1480 1479 1479 1478 1478 1477 1477 1477 1477 1476 1476 1476 1477 1478 1478 1479 1479 1479 1480 1480 1480 1480 1480 1480
1533 1534 1532 1531 1529 1521 1507 1505 1508 1508 1501 1498 1494 1492 1489 1487 1484 1482 1480 1479 1478 1477 1477 1477 1477 1476 1476 1476 1476 1475 1475 1475 1476 1477 1477 1478 1478 1479 1479 1479 1480 1480 1480 1480
1530 1529 1528 1526 1521 1510 1506 1505 1504 1501 1498 1494 1491 1489 1487 1484 1481 1479 1478 1477 1476 1476 1475 1476 1476 1475 1475 1475 1475 1474 1474 1474 1475 1475 1476 1477 1478 1478 1478 1479 1479 1479 1479 1479
1526 1523 1523 1519 1510 1506 1503 1501 1498 1496 1494 1490 1488 1485 1483 1481 1478 1477 1476 1475 1475 1474 1474 1474 1474 1474 1474 1474 1474 1474 1474 1474 1474 1474 1475 1476 1477 1477 1478 1478 1479 1479 1479 1479
1524 1522 1520 1515 1507 1502 1497 1496 1494 1491 1488 1485 1483 1481 1479 1477 1475 1474 1473 1473 1472 1472 1472 1472 1472 1473 1473 1473 1473 1473 1473 1473 1473 1474 1475 1476 1477 1477 1478 1478 1479 1479 1479 1478
1517 1517 1516 1510 1503 1501 1495 1491 1490 1487 1484 1482 1479 1476 1475 1474 1472 1471 1470 1470 1470 1470 1471 1471 1471 1471 1472 1472 1472 1472 1472 1473 1473 1474 1475 1476 1476 1477 1478 1478 1478 1479 1479 1478